Regional Weather Roundup
Issued by NWS

Home | Current Version | Previous Version | Graphics & Text | Print | Product List | Glossary On
Versions: 1 2 3 4 5 6 7 8 9 10 11 12 13 14 15 16 17 18 19 20 21 22 23 24 25 26 27 28 29 30 31 32 33 34 35 36 37 38 39 40 41 42 43 44 45 46 47 48 49 50
000
ASUS43 KBIS 271602
RWRND

NORTH DAKOTA REGIONAL WEATHER ROUNDUP
NATIONAL WEATHER SERVICE BISMARCK ND
1100 AM CDT WED JUL 27 2016

NOTE: "FAIR" INDICATES FEW OR NO CLOUDS BELOW 12,000 FEET WITH NO
SIGNIFICANT WEATHER AND/OR OBSTRUCTIONS TO VISIBILITY.


NDZ001>003-009>011-017-271700-
NORTHWEST NORTH DAKOTA

CITY           SKY/WX    TMP DP  RH WIND       PRES   REMARKS
WILLISTON      MOSUNNY   71  57  61 NE3       30.13S
MINOT          CLOUDY    73  60  63 VRB5      30.13F
MINOT AFB      CLOUDY    68  59  73 SE6       30.13F
$$

NDZ018>021-031>035-040>046-271700-
SOUTHWEST NORTH DAKOTA

CITY           SKY/WX    TMP DP  RH WIND       PRES   REMARKS
BISMARCK       SUNNY     73  64  73 VRB5      30.11S
DICKINSON      CLOUDY    65  60  84 E5        30.13S
GARRISON         N/A     71  63  75 SE7       30.13S
HETTINGER ARPT PTSUNNY   68  61  78 E7        30.15S
$$

NDZ004>008-012>016-024-026-027-054-271700-
NORTHEAST NORTH DAKOTA

CITY           SKY/WX    TMP DP  RH WIND       PRES   REMARKS
GRAND FORKS    MOSUNNY   71  59  65 N16       30.06S
GRND FRKS AFB  SUNNY     72  59  64 N14G20    30.07S
DEVILS LAKE    PTSUNNY   66  57  72 NE14      30.12F
$$

NDZ022-023-025-028>030-036>039-047>053-271700-
SOUTHEAST NORTH DAKOTA

CITY           SKY/WX    TMP DP  RH WIND       PRES   REMARKS
FARGO          SUNNY     73  57  57 N16       30.03S
JAMESTOWN      SUNNY     71  59  65 NE12      30.08S
$$





USA.gov is the U.S. government's official web portal to all federal, state and local government web resources and services.